Miscellaneous Local Product
Issued by NWS Hastings, NE

Home | Current Version | Previous Version | Text Only | Print | Product List | Glossary On
Versions: 1 2 3 4 5 6 7 8 9 10 11 12 13 14 15 16 17 18 19 20 21 22 23 24 25 26 27 28 29 30 31 32 33 34 35 36 37 38 39 40 41 42 43 44 45 46 47 48 49 50
118
AXUS43 KGID 170202
MISGRI

GID CWA HOURLY WEATHER ROUNDUP
NATIONAL WEATHER SERVICE HASTINGS NE
900 PM CDT WED AUG 16 2017

NOTE: "FAIR" INDICATES FEW OR NO CLOUDS BELOW 12,000 FEET WITH NO
SIGNIFICANT WEATHER AND/OR OBSTRUCTIONS TO VISIBILITY.

...SOUTH CENTRAL NEBRASKA...

CITY           SKY/WX    TMP DP  RH WIND       PRES   REMARKS
GRAND ISLAND   PTCLDY    66  64  93 NW7       29.90R
HASTINGS       MOCLDY    68  61  78 NW9       29.92R
KEARNEY        PTCLDY    66  61  84 NW7       29.93S
ORD            CLEAR     63  59  87 W3        29.90R
YORK           MOCLDY    66  64  94 NW8       29.88R
AURORA         PTCLDY    66  65  95 NW6       29.88S
LEXINGTON      CLEAR     64  60  86 NW5       29.96S
HOLDREGE       CLEAR     64  60  86 NW6       29.94R
HEBRON         CLOUDY    71  65  82 NW8       29.88R

...NEBRASKA PANHANDLE...

CITY           SKY/WX    TMP DP  RH WIND       PRES   REMARKS
CHADRON        CLEAR     68  55  63 SE6       30.00S
ALLIANCE       CLEAR     65  51  60 CALM      30.04S
SCOTTSBLUFF    CLEAR     69  53  56 SE7       30.06R
SIDNEY         CLEAR     64  49  57 NE7       30.10R

...WESTERN AND NORTH CENTRAL NEBRASKA...

CITY           SKY/WX    TMP DP  RH WIND       PRES   REMARKS
VALENTINE      CLEAR     67  54  63 N7        29.95R
AINSWORTH      CLEAR     64  58  80 NW6       29.95R
ONEILL         CLOUDY    64  62  93 NW10      29.89S
BROKEN BOW     CLEAR     65  61  87 CALM      29.94S
IMPERIAL       CLEAR     65  56  72 N8        30.03R
NORTH PLATTE   CLEAR     63  58  83 W5        29.99R
MCCOOK         CLEAR     67  61  81 NW6       29.98R

...EASTERN NEBRASKA...

CITY           SKY/WX    TMP DP  RH WIND       PRES   REMARKS
NORFOLK        CLEAR     65  60  84 NW13      29.83R
SO SIOUX CITY  CLOUDY    68  65  90 W14G21    29.76R
TEKAMAH        CLOUDY    71  65  81 W7        29.78R
COLUMBUS       PTCLDY    67  61  81 W8        29.87R
ALBION         PTCLDY    67  61  81 NW12      29.88R
OMAHA EPPLEY   PTCLDY    74  65  73 W6        29.79R
OFFUTT AFB     PTCLDY    74  64  69 NW6       29.79R
MILLARD        PTCLDY    74  67  79 W7        29.80R
LINCOLN        PTCLDY    73  64  73 NW12      29.84R
NEBRASKA CITY  CLOUDY    73  70  90 W5        29.82R
BEATRICE       CLEAR     74  67  78 W3        29.83R
FALLS CITY     CLOUDY    75  66  73 W6        29.81R

...NORTHERN KANSAS...

CITY           SKY/WX    TMP DP  RH WIND       PRES   REMARKS
GOODLAND       CLEAR     65  58  78 N7        30.04R
HILL CITY      CLEAR     69  63  81 N8        29.95R
NORTON         CLEAR     64  57  77 NW8       29.95R
PHILLIPSBURG   CLEAR     68  61  77 NW8       29.94R
SMITH CENTER   CLEAR     64  61  88 NW6       29.91R
HAYS           CLEAR     73  61  65 N10       29.92R
RUSSELL        CLEAR     75  60  59 N14       29.89R
CONCORDIA      CLEAR     72  62  71 NW8       29.87R
SALINA         CLEAR     80  62  54 NE5       29.88R
TOPEKA         CLOUDY    77  69  76 CALM      29.84R



USA.gov is the U.S. government's official web portal to all federal, state and local government web resources and services.